TimePDT,TemperatureF,Dew PointF,Humidity,Sea Level PressureIn,VisibilityMPH,Wind Direction,Wind SpeedMPH,Gust SpeedMPH,PrecipitationIn,Events,Conditions,WindDirDegrees,DateUTC
12:00 AM,37.4,35.6,93,30.23,10.0,NNW,4.6,-,N/A,Rain,Light Rain Showers,340,2012-10-25 07:00:00
1:00 AM,37.4,35.6,93,30.24,15.0,NNW,4.6,-,N/A,Rain,Light Rain,340,2012-10-25 08:00:00
1:30 AM,39.2,35.6,87,30.25,15.0,NNW,4.6,-,N/A,,Overcast,330,2012-10-25 08:30:00
2:00 AM,39.2,37.4,93,30.25,15.0,NNE,4.6,-,N/A,,Overcast,30,2012-10-25 09:00:00
2:14 AM,39.2,35.6,87,30.26,15.0,North,5.8,-,N/A,Rain,Light Rain Showers,10,2012-10-25 09:14:00
3:00 AM,39.2,37.4,93,30.27,15.0,NNE,4.6,-,N/A,Rain,Light Rain Showers,20,2012-10-25 10:00:00
4:00 AM,39.2,35.6,87,30.28,15.0,North,4.6,-,N/A,,Overcast,360,2012-10-25 11:00:00
5:00 AM,39,36,85,30.30,15,NNE,4.6,,,,Partly Cloudy,20,2012-10-25 12:00:00
5:00 AM,39.2,35.6,87,30.30,15.0,NNE,5.8,-,N/A,,Overcast,30,2012-10-25 12:00:00
6:00 AM,39.2,35.6,87,30.32,15.0,NNE,4.6,-,N/A,,Overcast,20,2012-10-25 13:00:00
7:00 AM,39.2,35.6,87,30.33,15.0,NNE,4.6,-,N/A,,Overcast,20,2012-10-25 14:00:00
8:00 AM,39.2,35.6,87,30.35,15.0,North,5.8,-,N/A,,Mostly Cloudy,10,2012-10-25 15:00:00
9:00 AM,41.0,37.4,87,30.38,15.0,NNE,3.5,-,N/A,,Mostly Cloudy,30,2012-10-25 16:00:00
10:00 AM,42.8,35.6,76,30.39,15.0,NE,4.6,-,N/A,,Mostly Cloudy,50,2012-10-25 17:00:00
11:00 AM,44,37,68,30.41,15,NW,4.6,,,,Mostly Cloudy,320,2012-10-25 18:00:00
11:00 AM,44.6,37.4,76,30.41,15.0,NNE,5.8,-,N/A,,Mostly Cloudy,20,2012-10-25 18:00:00
12:00 PM,44.6,35.6,71,30.42,15.0,NNE,5.8,-,N/A,,Mostly Cloudy,30,2012-10-25 19:00:00
1:00 PM,46.4,33.8,62,30.42,15.0,NW,2.3,-,N/A,,Mostly Cloudy,320,2012-10-25 20:00:00
2:00 PM,46.4,33.8,62,30.42,15.0,North,4.6,-,N/A,,Mostly Cloudy,360,2012-10-25 21:00:00
3:00 PM,48.2,33.8,58,30.41,15.0,NNW,4.6,-,N/A,,Mostly Cloudy,330,2012-10-25 22:00:00
5:00 PM,45,36,61,30.43,15,NNW,3.5,,,,Scattered Clouds,330,2012-10-26 00:00:00
5:00 PM,44.6,35.6,71,30.43,15.0,NW,3.5,-,N/A,,Mostly Cloudy,320,2012-10-26 00:00:00
6:00 PM,42.8,35.6,76,30.44,15.0,Calm,Calm,-,N/A,,Overcast,0,2012-10-26 01:00:00
7:00 PM,41.0,35.6,81,30.42,15.0,Calm,Calm,-,N/A,,Overcast,0,2012-10-26 02:00:00
8:00 PM,41.0,35.6,81,30.43,15.0,Calm,Calm,-,N/A,,Overcast,0,2012-10-26 03:00:00
9:00 PM,39.2,35.6,87,30.43,15.0,Calm,Calm,-,N/A,,Overcast,0,2012-10-26 04:00:00
10:00 PM,37.4,33.8,87,30.43,15.0,Calm,Calm,-,N/A,,Overcast,0,2012-10-26 05:00:00
11:00 PM,36,33,87,30.41,15,Calm,Calm,,,,Overcast,,2012-10-26 06:00:00
11:00 PM,35.6,33.8,93,30.41,15.0,NNE,2.3,-,N/A,,Overcast,20,2012-10-26 06:00:00